カタログに戻る

STARLINK-2377

運用中通信VLEO
NORAD 47797·PAYLOAD·🇺🇸 United States

打ち上げ Mar 11, 2021 から Cape Canaveral Space Force Station

Loading…

次のパス (今後24時間)

TLE

最新Source: CelesTrak SupGP

元期: Sep 14, 2026, 21:53 UTC

1 47797C 21018L   26257.91229167  .00023763  00000+0  76444-3 0  2570
2 47797  53.1579  94.7945 0001074  77.1065  23.5381 15.31679090    16

AllMySatでSTARLINK-2377をリアルタイム追跡

Download on the App Store